Location: Camerons Lookout
(40.9833°S, 175.9333°E)
Time: 23:51:52
(UTC+00:00)

Cosmos 1459 Rocket - Pass Details

Date: 14 January 2026
Orbit: 936 x 998 km, 83.0° (Epoch: 16 February)

Event Time Altitude Azimuth Distance (km) Brightness Sun altitude
Exits shadow 09:38:49 23° 17° (NNE) 1,968 5.1 -16.7°
Maximum altitude 09:42:47 58° 88° (E) 1,140 4.1 -17.2°
Drops below altitude 10° 09:49:02 10° 165° (SSE) 2,784 6.9 -18.0°
Sets 09:51:37 0° 168° (SSE) 3,746 7.7 -18.3°
